User: anonymous   Login
Location: Table Mountain
(47.2500°N, 120.5778°W)
Time: 04:02:32
(UTC-07:00)
Language:

N. Korean satellite - Orbit

View from above orbital plane
View from above orbital plane
View from above satellite
View from above satellite

Ground track
Ground track

The orbit data is extracted from the following two-line orbital elements,

1 39026U 12072A   18203.08777832  .00001177  00000-0  46441-4 0  9997
2 39026  97.2100 212.2672 0038548 196.7341 163.2629 15.26847963310983
Epoch (UTC): 22 July 2018 02:06:24
Eccentricity: 0.0038548
inclination: 97.2100°
perigee height: 459 km
apogee height: 512 km
right ascension of ascending node: 212.2672°
argument of perigee: 196.7341°
revolutions per day: 15.26847963
mean anomaly at epoch: 163.2629°
orbit number at epoch: 31098

The dashed part of the orbit path shows where the satellite is in the earth's shadow,  

DLR